Simultaneous Nadir Overpasses (SNOs) Predictions

Prediction of SNOs between METOP-B and TERRA Satellite Orbit:

Table of predicted SNOs for the next 14.0 days since TLE Epoch: 10/3/2025
Index Date (METOP-B) Time (METOP-B) Lat,Lon (METOP-B) SZA (METOP-B ) Date (TERRA) Time (TERRA) Lat,Lon (TERRA) SZA (TERRA ) Distance(km) Time Diff (sec)
1 10/05/2025 05:13:47 -59.64,-108.24 112.25 10/05/2025 05:15:00 -59.40,-106.87 112.87 82.03 73
2 10/05/2025 05:59:47 74.60, 78.72 79.53 10/05/2025 05:59:46 74.60, 78.73 79.53 0.46 1
3 10/07/2025 18:49:07 74.33,-114.31 80.25 10/07/2025 18:49:15 74.33,-114.31 80.24 0.30 8
4 10/07/2025 19:39:27 -75.43, 56.09 98.75 10/07/2025 19:38:14 -75.42, 56.08 98.75 0.63 73
5 10/10/2025 07:38:28 73.99, 52.54 80.90 10/10/2025 07:38:44 73.99, 52.55 80.90 0.53 16
6 10/10/2025 08:28:47 -75.15,-137.04 98.05 10/10/2025 08:27:42 -75.15,-137.04 98.04 0.18 65
7 10/12/2025 20:27:52 73.49,-140.96 81.40 10/12/2025 20:28:15 73.50,-140.88 81.41 2.78 23
8 10/12/2025 21:18:08 -74.81, 29.68 97.41 10/12/2025 21:17:10 -74.82, 29.74 97.40 2.10 58
9 10/15/2025 09:17:08 73.31, 26.34 82.19 10/15/2025 09:17:38 73.32, 26.36 82.18 0.55 30



Historial Predications of SNOs between METOP-B and TERRA
